Location: ?????????
(55.6553°N, 38.9075°E)
Time: 03:41:35
(UTC+00:00)

Cosmos 1980 Rocket - Pass Details

Date: 18 October 2019
Orbit: 827 x 851 km, 71.0° (Epoch: 21 November)

Event Time Altitude Azimuth Distance (km) Brightness Sun altitude
Exits shadow 00:39:47 33° 333° (NNW) 1,398 3.3 -28.3°
Drops below altitude 10° 00:44:28 10° 28° (NNE) 2,483 5.3 -27.7°
Sets 00:47:11 0° 38° (NE) 3,424 6.3 -27.4°
